Location: Alsip
(41.6689°N, 87.7387°W)
Time: 13:44:21
(UTC+00:00)

Cosmos 1733 Rocket - Pass Details

Date: 14 July 2020
Orbit: 604 x 628 km, 82.5° (Epoch: 04 August)

Event Time Altitude Azimuth Distance (km) Brightness Sun altitude
Exits shadow 07:57:57 38° 151° (SSE) 935 3.7 -20.8°
Maximum altitude 07:59:19 56° 94° (E) 724 3.5 -20.7°
Drops below altitude 10° 08:03:33 10° 17° (NNE) 1,959 6.7 -20.3°
Sets 08:05:48 0° 13° (NNE) 2,868 7.8 -20.1°
